EW1325 Weather Reports


time (UTC)temp
F
wind
direction
speed
knots
gust
knots
rain 1hr
in
rain 24hr
in
rain mn
in
humidity
%
barometer
mb
20260901131558 69 160 0.0 0.0 0.06 0.07 0.07 97 1014.7
20260901131058 69 186 0.0 0.0 0.06 0.07 0.07 97 1014.7
20260901130558 69 170 0.0 0.0 0.06 0.07 0.07 97 1014.8
20260901130106 69 194 0.0 0.0 0.05 0.06 0.06 97 1014.8
20260901125600 69 167 0.0 0.0 0.05 0.06 0.06 97 1014.9
20260901125056 69 150 0.0 0.0 0.05 0.05 0.05 97 1015.1
20260901124556 69 151 0.0 0.0 0.05 0.05 0.05 97 1015.1
20260901124055 69 151 0.0 0.0 0.05 0.05 0.05 97 1015.1
20260901123556 69 150 0.0 0.0 0.05 0.05 0.05 97 1015.0
20260901123055 69 150 0.0 0.0 0.04 0.04 0.04 97 1014.9
20260901122553 69 150 0.0 0.0 0.03 0.03 0.03 97 1015.0
20260901122056 69 150 0.0 0.0 0.02 0.02 0.02 97 1014.9
20260901121559 68 150 0.0 0.0 0.01 0.01 0.01 96 1015.0
20260901121053 68 150 0.0 0.0 0.01 0.01 0.01 96 1015.0
20260901120553 68 181 0.0 0.0 0.01 0.01 0.01 96 1014.9
20260901120105 68 181 0.0 0.0 0.01 0.01 0.01 96 1014.8
20260901115553 68 179 0.0 0.0 0.01 0.01 0.01 96 1014.8
20260901115056 68 179 0.0 0.0 0.00 0.00 0.00 96 1014.8
20260901114555 68 179 0.0 0.0 0.00 0.00 0.00 96 1014.8
20260901114054 68 179 0.0 0.0 0.00 0.00 0.00 96 1014.8
20260901113554 68 179 0.0 0.0 0.00 0.00 0.00 96 1014.8
20260901113052 68 179 0.0 0.0 0.00 0.00 0.00 96 1014.8
20260901112553 68 222 0.0 0.0 0.00 0.00 0.00 96 1014.6
20260901112053 68 156 0.0 0.0 0.00 0.00 0.00 96 1014.6
20260901111557 68 162 0.0 0.0 0.00 0.00 0.00 96 1014.4
20260901111050 68 193 0.0 0.0 0.00 0.00 0.00 96 1014.5
20260901110551 68 160 0.0 0.0 0.00 0.00 0.00 96 1014.4
20260901110052 68 148 0.0 0.0 0.00 0.00 0.00 96 1014.4
20260901105549 68 146 0.0 0.0 0.00 0.00 0.00 96 1014.6
20260901105048 68 152 0.0 0.0 0.00 0.00 0.00 96 1014.6
20260901104548 68 163 0.0 0.0 0.00 0.00 0.00 96 1014.6
20260901104049 68 158 0.0 0.0 0.00 0.00 0.00 96 1014.7
20260901103547 68 169 0.0 0.0 0.00 0.00 0.00 96 1014.6
20260901103055 68 151 0.0 0.0 0.00 0.00 0.00 96 1014.6
20260901102551 68 167 0.0 0.0 0.00 0.00 0.00 96 1014.6
20260901102046 68 187 0.0 0.0 0.00 0.00 0.00 95 1014.6
20260901101554 68 184 0.0 0.0 0.00 0.00 0.00 95 1014.5
20260901101050 68 176 0.0 0.0 0.00 0.00 0.00 95 1014.6
20260901100546 68 167 0.0 0.0 0.00 0.00 0.00 95 1014.6
20260901100052 68 169 0.0 0.0 0.00 0.00 0.00 95 1014.6
20260901095547 68 150 0.0 0.0 0.00 0.00 0.00 95 1014.6
20260901095048 68 187 0.0 0.0 0.00 0.00 0.00 95 1014.7
20260901094544 68 155 0.0 0.0 0.00 0.00 0.00 95 1014.6
20260901094046 68 155 0.0 0.0 0.00 0.00 0.00 94 1014.5
20260901093545 68 193 0.0 0.0 0.00 0.00 0.00 94 1014.6
20260901093042 68 194 0.0 0.0 0.00 0.00 0.00 94 1014.7
20260901092542 68 194 0.0 0.0 0.00 0.00 0.00 94 1014.7
20260901092042 68 194 0.0 0.0 0.00 0.00 0.00 94 1014.8
20260901091542 68 194 0.0 0.0 0.00 0.00 0.00 94 1014.7
20260901091040 68 194 0.0 0.0 0.00 0.00 0.00 94 1014.7
20260901090540 68 194 0.0 0.0 0.00 0.00 0.00 94 1014.8
20260901090040 68 194 0.0 0.0 0.00 0.00 0.00 94 1014.8
20260901085539 68 194 0.0 0.0 0.00 0.00 0.00 94 1014.8
20260901085040 68 193 0.0 0.0 0.00 0.00 0.00 94 1014.9
20260901084545 68 193 0.0 0.0 0.00 0.00 0.00 94 1015.0
20260901084038 68 194 0.0 0.0 0.00 0.00 0.00 94 1015.0
20260901083541 68 194 0.0 0.0 0.00 0.00 0.00 94 1015.1
20260901083037 68 153 0.0 0.0 0.00 0.00 0.00 94 1015.0
20260901082536 68 114 0.0 0.0 0.00 0.00 0.00 94 1015.1
20260901082036 68 207 0.0 0.0 0.00 0.00 0.00 94 1015.1
20260901081535 68 176 0.0 0.0 0.00 0.00 0.00 93 1015.2
20260901081037 68 172 0.0 0.0 0.00 0.00 0.00 93 1015.2
20260901080534 68 153 0.0 0.0 0.00 0.00 0.00 94 1015.3
20260901080134 68 153 0.0 0.0 0.00 0.00 0.00 94 1015.3
20260901075534 68 155 0.0 0.0 0.00 0.00 0.00 94 1015.3
20260901075033 68 155 0.0 0.0 0.00 0.00 0.00 94 1015.3
20260901074532 68 155 0.0 0.0 0.00 0.00 0.00 94 1015.3
20260901074034 68 195 0.0 0.0 0.00 0.00 0.00 94 1015.4
20260901073532 68 224 0.0 0.0 0.00 0.00 0.00 94 1015.5
20260901073042 68 224 0.0 0.0 0.00 0.00 0.00 94 1015.5
20260901072530 68 224 0.0 0.0 0.00 0.00 0.00 94 1015.6
20260901072029 68 224 0.0 0.0 0.00 0.00 0.00 94 1015.6
20260901071530 68 224 0.0 0.0 0.00 0.00 0.00 93 1015.6
20260901071029 68 224 0.0 0.0 0.00 0.00 0.00 93 1015.6
20260901070529 68 224 0.0 0.0 0.00 0.00 0.00 93 1015.7
20260901070029 68 224 0.0 0.0 0.00 0.00 0.00 93 1015.6
20260901065529 68 198 0.0 0.0 0.00 0.00 0.00 93 1015.5
20260901065029 68 200 0.0 0.0 0.00 0.00 0.00 93 1015.6
20260901064527 68 200 0.0 0.0 0.00 0.00 0.00 93 1015.7
20260901064027 68 200 0.0 0.0 0.00 0.00 0.00 92 1015.7
20260901063529 68 200 0.0 0.0 0.00 0.00 0.00 92 1015.7
20260901063026 68 200 0.0 0.0 0.00 0.00 0.00 92 1015.7
20260901062525 68 200 0.0 0.0 0.00 0.00 0.00 91 1015.7
20260901062025 68 200 0.0 0.0 0.00 0.00 0.00 91 1015.8
20260901061524 69 200 0.0 0.0 0.00 0.00 0.00 91 1015.9
20260901061024 69 159 0.0 0.0 0.00 0.00 0.00 90 1015.9
20260901060524 69 167 0.0 0.0 0.00 0.00 0.00 90 1016.0
20260901060037 69 132 0.0 0.0 0.00 0.00 0.00 90 1015.9
20260901055522 69 165 0.0 0.0 0.00 0.00 0.00 89 1015.9
20260901055022 69 183 0.0 0.0 0.00 0.00 0.00 89 1016.0
20260901054520 69 146 0.0 0.0 0.00 0.00 0.00 89 1016.1
20260901054019 69 202 0.0 0.0 0.00 0.00 0.00 89 1016.2
20260901053519 69 160 0.0 0.0 0.00 0.00 0.00 89 1016.2
20260901053019 69 205 0.0 0.0 0.00 0.00 0.00 89 1016.2
20260901052517 69 186 0.0 0.0 0.00 0.00 0.00 89 1016.2
20260901052016 69 177 0.0 0.0 0.00 0.00 0.00 89 1016.3
20260901051516 69 170 0.0 0.0 0.00 0.00 0.00 89 1016.4
20260901051017 69 208 0.0 0.0 0.00 0.00 0.00 89 1016.4
20260901050516 69 208 0.0 0.0 0.00 0.00 0.00 88 1016.4
20260901050016 69 170 0.0 0.0 0.00 0.00 0.00 88 1016.4
20260901045516 69 146 0.0 0.0 0.00 0.00 0.00 88 1016.5
20260901045014 69 145 0.0 0.0 0.00 0.00 0.00 88 1016.5
20260901044514 69 211 0.0 0.0 0.00 0.00 0.00 88 1016.5
20260901044014 69 207 0.0 0.0 0.00 0.00 0.00 88 1016.5
20260901043514 69 179 0.0 0.0 0.00 0.00 0.00 88 1016.5
20260901043113 69 172 0.0 0.0 0.00 0.00 0.00 88 1016.5
20260901042512 69 156 0.0 0.0 0.00 0.00 0.00 88 1016.5
20260901042012 69 148 0.0 0.0 0.00 0.00 0.00 88 1016.5
20260901041512 69 148 0.0 0.0 0.00 0.00 0.00 88 1016.5
20260901041011 69 133 0.0 0.0 0.00 0.00 0.00 88 1016.6
20260901040511 69 191 0.0 0.0 0.00 0.00 0.00 88 1016.6
20260901040011 69 200 0.0 0.0 0.00 0.00 0.00 88 1016.5
20260901035512 69 165 0.0 0.0 0.00 0.00 0.00 88 1016.5
20260901035009 69 139 0.0 0.0 0.00 0.00 0.00 88 1016.5
20260901034509 69 160 0.0 0.0 0.00 0.00 0.00 88 1016.6
20260901034009 69 160 0.0 0.0 0.00 0.00 0.00 88 1016.6
20260901033512 69 161 0.0 0.0 0.00 0.00 0.00 87 1016.7
20260901033009 69 187 0.0 0.0 0.00 0.00 0.00 87 1016.7
20260901032509 69 172 0.0 0.0 0.00 0.00 0.00 87 1016.7
20260901032009 69 138 0.0 0.0 0.00 0.00 0.00 86 1016.8
20260901031509 69 167 0.0 0.0 0.00 0.00 0.00 86 1016.8
20260901031010 69 166 0.0 0.0 0.00 0.00 0.00 86 1016.8
20260901030508 69 138 0.0 0.0 0.00 0.00 0.00 85 1016.7
20260901030008 70 201 0.0 0.0 0.00 0.00 0.00 84 1016.9
20260901025508 70 201 0.0 0.0 0.00 0.00 0.00 84 1016.9
20260901025008 70 166 0.0 0.0 0.00 0.00 0.00 84 1016.9
20260901024508 70 144 0.0 0.0 0.00 0.00 0.00 83 1016.8
20260901024008 70 156 0.0 0.0 0.00 0.00 0.00 83 1016.9
20260901023511 70 155 0.0 0.0 0.00 0.00 0.00 83 1016.9
20260901023007 70 156 0.0 0.0 0.00 0.00 0.00 83 1016.8
20260901022507 70 145 0.0 0.0 0.00 0.00 0.00 82 1016.8
20260901022007 70 159 0.0 0.0 0.00 0.00 0.00 82 1016.7
20260901021510 70 177 0.0 0.0 0.00 0.00 0.00 82 1016.7
20260901021007 70 148 0.0 0.0 0.00 0.00 0.00 82 1016.7
20260901020507 70 148 0.0 0.0 0.00 0.00 0.00 81 1016.7
20260901020007 70 163 0.0 0.0 0.00 0.00 0.00 81 1016.8
20260901015507 70 166 0.0 0.0 0.00 0.00 0.00 80 1016.7
20260901015007 70 152 0.0 0.0 0.00 0.00 0.00 80 1016.7
20260901014505 70 148 0.0 0.0 0.00 0.00 0.00 79 1016.8
20260901014005 70 143 0.0 0.0 0.00 0.00 0.00 79 1016.8
20260901013506 70 156 0.0 0.0 0.00 0.00 0.00 78 1016.9
20260901013008 70 167 0.0 0.0 0.00 0.00 0.00 78 1016.9
20260901012508 70 148 0.0 0.0 0.00 0.00 0.00 78 1017.1
20260901012009 71 173 0.0 0.0 0.00 0.00 0.00 77 1017.2
20260901011505 71 173 0.0 0.0 0.00 0.00 0.00 77 1017.1
20260901011005 71 173 0.0 0.0 0.00 0.00 0.00 77 1017.1
20260901010509 71 143 0.0 0.0 0.00 0.00 0.00 77 1017.1
20260901010005 71 165 0.0 0.0 0.00 0.00 0.00 76 1017.1
20260901005507 71 157 0.0 0.0 0.00 0.00 0.00 76 1017.0
20260901005006 71 148 0.0 0.0 0.00 0.00 0.00 76 1017.0
20260901004504 71 148 0.0 0.0 0.00 0.00 0.00 76 1017.0
20260901004004 71 195 0.0 0.0 0.00 0.00 0.00 76 1017.0
20260901003503 71 171 0.0 0.0 0.00 0.00 0.00 76 1017.0
20260901003010 71 157 0.0 0.0 0.00 0.00 0.00 76 1016.9
20260901002503 71 163 0.0 0.0 0.00 0.00 0.00 76 1016.9
20260901002008 71 170 0.0 0.0 0.00 0.00 0.00 76 1016.9
20260901001504 71 163 0.0 0.0 0.00 0.00 0.00 75 1016.9
20260901001003 71 211 0.0 0.0 0.00 0.00 0.00 75 1016.7
20260901000502 71 138 0.0 0.0 0.00 0.00 0.00 75 1016.8
20260901000003 71 163 0.0 0.0 0.00 0.00 0.00 76 1016.8
20260831235502 72 214 0.0 0.0 0.00 0.01 0.00 76 1016.9
20260831235002 72 203 0.0 0.0 0.00 0.01 0.00 76 1016.8
20260831234502 72 158 0.0 0.0 0.00 0.01 0.00 76 1016.8
20260831234002 72 152 0.0 0.0 0.00 0.01 0.00 77 1016.7
20260831233504 72 143 0.0 0.0 0.00 0.01 0.00 77 1016.8
20260831233001 73 165 0.0 0.0 0.00 0.01 0.00 78 1016.8
20260831232501 73 201 0.0 0.0 0.00 0.01 0.00 78 1016.9
20260831232001 73 204 0.0 0.0 0.00 0.01 0.00 78 1016.9
20260831231600 73 165 0.0 0.0 0.00 0.01 0.00 77 1016.9
20260831231100 73 165 0.0 0.0 0.00 0.01 0.00 77 1016.9
20260831230604 73 174 0.0 0.0 0.00 0.01 0.00 76 1017.0
20260831230113 73 173 0.0 0.0 0.00 0.01 0.00 75 1017.0
20260831225601 73 148 0.0 0.0 0.00 0.01 0.00 75 1017.1
20260831225100 74 231 0.0 0.0 0.00 0.01 0.00 74 1017.1
20260831224559 74 135 0.0 0.0 0.00 0.01 0.00 74 1017.1
20260831224059 74 134 0.0 0.0 0.00 0.01 0.00 74 1017.1
20260831223559 74 135 0.0 0.0 0.00 0.01 0.00 72 1017.1
20260831223109 74 145 0.0 0.0 0.00 0.01 0.00 72 1017.0
20260831222558 74 138 0.0 0.0 0.00 0.01 0.00 71 1017.0
20260831222058 74 145 0.0 0.0 0.00 0.01 0.00 70 1017.1
20260831221600 74 131 0.0 0.0 0.00 0.01 0.00 69 1017.2
20260831221058 74 150 0.0 0.0 0.00 0.01 0.00 68 1017.2
20260831220558 75 152 0.0 0.0 0.00 0.01 0.00 68 1017.1
20260831220059 75 148 0.0 0.0 0.00 0.01 0.00 67 1017.1
20260831215558 75 173 0.0 0.0 0.00 0.01 0.00 65 1017.0
20260831215057 75 134 0.0 0.0 0.00 0.01 0.00 65 1017.1
20260831214608 75 214 0.0 0.0 0.00 0.01 0.00 64 1017.1
20260831214058 75 172 0.0 0.0 0.00 0.01 0.00 64 1017.0
20260831213556 75 204 0.0 0.0 0.00 0.01 0.00 64 1017.0
20260831213058 75 208 0.0 0.0 0.00 0.01 0.00 65 1016.9
20260831212556 75 145 0.0 0.0 0.00 0.01 0.00 63 1016.9
20260831212059 75 156 0.0 0.0 0.00 0.01 0.00 63 1017.0
20260831211556 76 155 0.0 0.0 0.00 0.01 0.00 64 1017.0
20260831211056 76 120 0.0 0.0 0.00 0.01 0.00 63 1017.0
20260831210559 76 136 0.0 0.0 0.00 0.01 0.00 63 1017.0
20260831210056 76 137 0.0 0.0 0.00 0.01 0.00 62 1016.9
20260831205559 77 176 0.0 0.0 0.00 0.01 0.00 63 1016.9
20260831205054 77 205 0.0 0.0 0.00 0.01 0.00 65 1016.9
20260831204554 77 146 0.0 0.0 0.00 0.01 0.00 63 1016.8
20260831204054 77 205 0.0 0.0 0.00 0.01 0.00 63 1016.8
20260831203554 77 177 0.0 0.0 0.00 0.01 0.00 64 1016.9
20260831203058 77 212 0.0 0.0 0.00 0.01 0.00 63 1016.9
20260831202553 78 153 0.0 0.0 0.00 0.01 0.00 61 1017.0
20260831202056 79 167 0.0 0.0 0.00 0.01 0.00 61 1017.1
20260831201553 79 218 0.0 0.0 0.00 0.01 0.00 63 1017.0
20260831201054 80 173 0.0 0.0 0.00 0.01 0.00 59 1016.9
20260831200553 81 116 0.0 0.0 0.00 0.01 0.00 60 1016.9
20260831200104 80 344 0.0 0.0 0.00 0.01 0.00 61 1016.9
20260831195552 80 219 0.0 0.0 0.00 0.01 0.00 62 1016.8
20260831195051 80 135 0.0 0.0 0.00 0.01 0.00 63 1016.8
20260831194627 79 297 0.0 0.0 0.00 0.01 0.00 63 1016.9
20260831194051 79 231 0.0 0.0 0.00 0.01 0.00 64 1017.0
20260831193550 79 232 0.0 0.0 0.00 0.01 0.00 60 1017.0
20260831193053 78 283 0.0 0.0 0.00 0.01 0.00 64 1017.2
20260831192550 78 146 0.0 0.0 0.00 0.01 0.00 62 1017.2
20260831192050 78 150 0.0 0.0 0.00 0.01 0.00 62 1017.2
20260831191550 78 326 0.0 0.0 0.00 0.01 0.00 63 1017.4
20260831191054 78 125 0.0 0.0 0.00 0.01 0.00 64 1017.5
20260831190550 78 181 0.0 0.0 0.00 0.01 0.00 65 1017.5
20260831190057 78 259 0.0 0.0 0.00 0.01 0.00 63 1017.6
20260831185549 78 260 0.0 0.0 0.00 0.01 0.00 65 1017.7
20260831185048 78 259 0.0 0.0 0.00 0.01 0.00 62 1017.7
20260831184548 79 298 0.0 0.0 0.00 0.01 0.00 62 1017.6
20260831184051 79 113 0.0 0.0 0.00 0.01 0.00 62 1017.4
20260831183548 79 113 0.0 0.0 0.00 0.01 0.00 60 1017.4
20260831183055 79 111 0.0 0.0 0.00 0.01 0.00 60 1017.5
20260831182550 79 111 0.0 0.0 0.00 0.01 0.00 61 1017.5
20260831182053 79 115 0.0 0.0 0.00 0.01 0.00 59 1017.6
20260831181550 80 242 0.0 0.0 0.00 0.01 0.00 58 1017.6
20260831181047 80 124 0.0 0.0 0.00 0.01 0.00 57 1017.7
20260831180547 81 170 0.0 0.0 0.00 0.01 0.00 56 1017.8
20260831180103 81 302 0.0 0.0 0.00 0.01 0.00 57 1017.9
20260831175546 81 17 0.0 0.0 0.00 0.01 0.00 58 1017.9
20260831175048 80 18 0.0 0.0 0.00 0.01 0.00 55 1018.1
20260831174550 81 273 0.0 0.0 0.00 0.01 0.00 58 1018.1
20260831174045 81 188 0.0 0.0 0.00 0.01 0.00 55 1018.2
20260831173548 81 158 0.0 0.0 0.00 0.01 0.00 54 1018.3
20260831173043 80 141 0.0 0.0 0.00 0.01 0.00 55 1018.2
20260831172542 80 194 0.0 0.0 0.00 0.01 0.00 55 1018.2
20260831172041 80 117 0.0 0.0 0.00 0.01 0.00 56 1018.3
20260831171540 79 131 0.0 0.0 0.00 0.01 0.00 56 1018.2
20260831171040 79 352 0.0 0.0 0.00 0.01 0.00 58 1018.2
20260831170540 79 111 0.0 0.0 0.00 0.01 0.00 60 1018.4
20260831170042 78 110 0.0 0.0 0.00 0.01 0.00 60 1018.4
20260831165539 79 108 0.0 0.0 0.00 0.01 0.00 58 1018.4
20260831165037 79 103 0.0 0.0 0.00 0.01 0.00 61 1018.5
20260831164546 79 4 0.0 0.0 0.00 0.01 0.00 59 1018.7
20260831164037 80 223 0.0 0.0 0.00 0.01 0.00 62 1018.8
20260831163535 79 151 0.0 0.0 0.00 0.01 0.00 62 1018.8
20260831163034 79 129 0.0 0.0 0.00 0.01 0.00 62 1018.7
20260831162535 79 99 0.0 0.0 0.00 0.01 0.00 63 1018.6
20260831162033 78 115 0.0 0.0 0.00 0.01 0.00 64 1018.7
20260831161533 78 132 0.0 0.0 0.00 0.01 0.00 64 1018.8
20260831161031 78 195 0.0 0.0 0.00 0.01 0.00 64 1018.9
20260831160531 78 257 0.0 0.0 0.00 0.01 0.00 64 1019.0
20260831160031 78 156 0.0 0.0 0.00 0.01 0.00 65 1018.9
20260831155530 78 96 0.0 0.0 0.00 0.01 0.00 66 1019.1
20260831155031 77 127 0.0 0.0 0.00 0.01 0.00 67 1019.0
20260831154532 77 84 0.0 0.0 0.00 0.01 0.00 67 1019.0
20260831154028 77 85 0.0 0.0 0.00 0.01 0.00 68 1019.1
20260831153526 76 103 0.0 0.0 0.00 0.01 0.00 67 1019.1
20260831153025 76 101 0.0 0.0 0.00 0.01 0.00 68 1019.0
20260831152524 76 148 0.0 0.0 0.00 0.01 0.00 67 1019.1
20260831152024 75 315 0.0 0.0 0.00 0.01 0.00 68 1019.1
20260831151523 75 101 0.0 0.0 0.00 0.01 0.00 69 1019.0
20260831151022 75 87 0.0 0.0 0.00 0.01 0.00 69 1018.9
20260831150520 75 349 0.0 0.0 0.00 0.01 0.00 69 1019.1
20260831150022 74 78 0.0 0.0 0.00 0.01 0.00 73 1019.1
20260831145517 74 96 0.0 0.0 0.00 0.01 0.00 73 1019.2
20260831145017 73 1 0.0 0.0 0.00 0.01 0.00 73 1019.2
20260831144517 73 329 0.0 0.0 0.00 0.01 0.00 72 1019.2
20260831144017 73 309 0.0 0.0 0.00 0.01 0.00 74 1019.2
20260831143517 72 110 0.0 0.0 0.00 0.01 0.00 73 1019.2
20260831143014 72 64 0.0 0.0 0.00 0.01 0.00 74 1019.1
20260831142513 72 318 0.0 0.0 0.00 0.01 0.00 73 1019.0
20260831142015 72 104 0.0 0.0 0.00 0.01 0.00 74 1019.0
20260831141511 72 118 0.0 0.0 0.00 0.01 0.00 74 1019.1
20260831141010 72 111 0.0 0.0 0.00 0.01 0.00 75 1019.1
20260831140509 71 359 0.0 0.0 0.00 0.01 0.00 80 1019.0
20260831140009 71 345 0.0 0.0 0.00 0.01 0.00 80 1019.0
20260831135509 71 337 0.0 0.0 0.00 0.01 0.00 80 1019.1
20260831135007 71 175 0.0 0.0 0.00 0.01 0.00 81 1019.1
20260831134506 70 106 0.0 0.0 0.00 0.01 0.00 82 1019.0
20260831134008 70 326 0.0 0.9 0.00 0.01 0.00 81 1018.8
20260831133504 70 353 0.0 0.9 0.00 0.01 0.00 82 1019.0
20260831133015 70 321 0.0 0.9 0.00 0.01 0.00 83 1019.1
20260831132506 70 360 0.0 0.9 0.00 0.01 0.00 83 1019.1